Location: Waco, TX
(31.5480°N, 97.1670°W)
Time: 12:07:13
(UTC-06:00)

ISS - Pass Details

Date: 17 February 2018
Orbit: 402 x 407 km, 51.6° (Epoch: 25 February)

Event Time Altitude Azimuth Distance (km) Brightness Sun altitude
Rises 10:03:47 0° 243° (WSW) 2,308 -0.2 32.3°
Reaches altitude 10° 10:05:59 10° 254° (WSW) 1,451 -1.2 32.6°
Maximum altitude 10:08:57 32° 320° (NW) 717 -2.8 33.1°
Drops below altitude 10° 10:11:55 10° 25° (NNE) 1,455 -1.1 33.6°
Sets 10:14:08 0° 36° (NE) 2,316 -0.1 33.9°
